Time,TemperatureF,DewpointF,PressureIn,WindDirection,WindDirectionDegrees,WindSpeedMPH,WindSpeedGustMPH,Humidity,HourlyPrecipIn,Conditions,Clouds,dailyrainin,SoftwareType,DateUTC
2013-04-09 00:00:00,52.5,49.4,29.98,East,90,1.0,1.0,89,0.00,,,0.00,Wunderground v.1.15,2013-04-09 05:00:00,
2013-04-09 00:05:00,52.4,49.3,29.98,South,178,0.0,1.0,89,0.00,,,0.00,Wunderground v.1.15,2013-04-09 05:05:00,
2013-04-09 00:15:00,52.2,49.4,29.99,East,92,1.0,1.0,90,0.00,,,0.00,Wunderground v.1.15,2013-04-09 05:15:00,
2013-04-09 00:20:00,52.0,48.9,29.98,SSE,149,1.0,1.0,89,0.00,,,0.00,Wunderground v.1.15,2013-04-09 05:20:00,
2013-04-09 00:25:00,51.9,48.8,29.98,ENE,65,1.0,1.0,89,0.00,,,0.00,Wunderground v.1.15,2013-04-09 05:25:00,
2013-04-09 00:35:00,51.6,48.8,29.99,NNW,340,1.0,7.0,90,0.00,,,0.00,Wunderground v.1.15,2013-04-09 05:35:00,
2013-04-09 00:45:00,51.3,48.5,29.99,ESE,119,1.0,7.0,90,0.00,,,0.00,Wunderground v.1.15,2013-04-09 05:45:00,
2013-04-09 00:50:00,51.1,48.3,29.99,ESE,104,2.0,5.0,90,0.00,,,0.00,Wunderground v.1.15,2013-04-09 05:50:00,
2013-04-09 00:55:00,50.9,48.1,29.99,ESE,109,2.0,5.0,90,0.00,,,0.00,Wunderground v.1.15,2013-04-09 05:55:00,
2013-04-09 01:00:00,50.7,47.9,29.99,East,92,1.0,2.0,90,0.00,,,0.00,Wunderground v.1.15,2013-04-09 06:00:00,
2013-04-09 01:05:00,50.5,47.7,29.99,NE,52,2.0,6.0,90,0.00,,,0.00,Wunderground v.1.15,2013-04-09 06:05:00,
2013-04-09 01:15:00,50.2,47.4,29.98,ENE,57,2.0,5.0,90,0.00,,,0.00,Wunderground v.1.15,2013-04-09 06:15:00,
2013-04-09 01:20:00,49.9,47.1,29.98,ENE,68,2.0,2.0,90,0.00,,,0.00,Wunderground v.1.15,2013-04-09 06:20:00,
2013-04-09 01:25:00,49.7,46.9,29.98,ESE,112,3.0,9.0,90,0.00,,,0.00,Wunderground v.1.15,2013-04-09 06:25:00,
2013-04-09 01:35:00,49.2,46.4,29.98,ESE,115,3.0,6.0,90,0.00,,,0.00,Wunderground v.1.15,2013-04-09 06:35:00,
2013-04-09 01:40:00,49.1,46.6,29.99,ESE,119,1.0,1.0,91,0.00,,,0.00,Wunderground v.1.15,2013-04-09 06:40:00,
2013-04-09 01:45:00,49.0,46.5,29.99,ESE,109,1.0,1.0,91,0.00,,,0.00,Wunderground v.1.15,2013-04-09 06:45:00,
2013-04-09 01:50:00,48.8,46.3,29.98,East,90,2.0,5.0,91,0.00,,,0.00,Wunderground v.1.15,2013-04-09 06:50:00,
2013-04-09 02:00:00,48.5,46.0,29.98,East,97,3.0,3.0,91,0.00,,,0.00,Wunderground v.1.15,2013-04-09 07:00:00,
2013-04-09 02:05:00,48.4,45.9,29.98,East,86,2.0,3.0,91,0.00,,,0.00,Wunderground v.1.15,2013-04-09 07:05:00,
2013-04-09 02:15:00,48.1,45.3,29.98,ESE,123,3.0,3.0,90,0.00,,,0.00,Wunderground v.1.15,2013-04-09 07:15:00,
2013-04-09 02:20:00,47.9,45.1,30.00,SSW,194,3.0,3.0,90,0.00,,,0.00,Wunderground v.1.15,2013-04-09 07:20:00,
2013-04-09 02:30:00,47.4,44.9,29.98,SE,126,2.0,2.0,91,0.31,,,0.08,Wunderground v.1.15,2013-04-09 07:30:00,
2013-04-09 02:35:00,47.1,44.9,30.00,SSE,149,2.0,4.0,92,0.14,,,0.09,Wunderground v.1.15,2013-04-09 07:35:00,
2013-04-09 02:45:00,46.5,44.3,30.00,East,89,1.0,2.0,92,0.04,,,0.09,Wunderground v.1.15,2013-04-09 07:45:00,
2013-04-09 02:55:00,46.1,43.9,29.97,ENE,77,2.0,5.0,92,1.50,,,0.18,Wunderground v.1.15,2013-04-09 07:55:00,
2013-04-09 03:00:00,45.7,43.5,29.95,East,97,3.0,5.0,92,0.27,,,0.21,Wunderground v.1.15,2013-04-09 08:00:00,
2013-04-09 03:06:00,45.5,43.6,29.98,SE,141,4.0,5.0,93,0.10,,,0.22,Wunderground v.1.15,2013-04-09 08:06:00,
2013-04-09 03:15:00,45.3,43.4,29.96,East,94,3.0,4.0,93,0.06,,,0.22,Wunderground v.1.15,2013-04-09 08:15:00,
2013-04-09 03:20:00,45.1,43.2,29.96,ESE,118,2.0,4.0,93,0.04,,,0.22,Wunderground v.1.15,2013-04-09 08:20:00,
2013-04-09 03:25:00,45.1,43.2,29.97,East,90,2.0,4.0,93,0.21,,,0.24,Wunderground v.1.15,2013-04-09 08:25:00,
2013-04-09 03:35:00,45.0,43.4,29.96,East,97,1.0,2.0,94,0.07,,,0.25,Wunderground v.1.15,2013-04-09 08:35:00,
2013-04-09 03:40:00,45.0,43.4,29.96,ESE,107,2.0,2.0,94,0.07,,,0.25,Wunderground v.1.15,2013-04-09 08:40:00,
2013-04-09 03:45:00,45.0,43.4,29.96,ESE,115,1.0,2.0,94,0.04,,,0.25,Wunderground v.1.15,2013-04-09 08:45:00,
2013-04-09 03:50:00,45.0,43.4,29.96,East,91,2.0,2.0,94,0.00,,,0.25,Wunderground v.1.15,2013-04-09 08:50:00,
2013-04-09 03:55:00,45.0,43.4,29.96,East,101,2.0,4.0,94,0.00,,,0.25,Wunderground v.1.15,2013-04-09 08:55:00,
2013-04-09 04:00:00,45.2,43.6,29.96,ESE,115,3.0,4.0,94,0.00,,,0.26,Wunderground v.1.15,2013-04-09 09:00:00,
2013-04-09 04:05:00,45.5,43.9,29.96,SE,145,2.0,6.0,94,0.00,,,0.26,Wunderground v.1.15,2013-04-09 09:05:00,
2013-04-09 04:15:00,45.6,44.3,29.96,ESE,111,3.0,4.0,95,0.00,,,0.26,Wunderground v.1.15,2013-04-09 09:15:00,
2013-04-09 04:20:00,45.3,43.7,29.96,ENE,60,4.0,5.0,94,0.00,,,0.26,Wunderground v.1.15,2013-04-09 09:20:00,
2013-04-09 04:25:00,44.9,43.3,29.96,ESE,115,3.0,5.0,94,0.00,,,0.26,Wunderground v.1.15,2013-04-09 09:25:00,
2013-04-09 04:35:00,44.5,42.9,29.95,East,100,3.0,7.0,94,0.00,,,0.27,Wunderground v.1.15,2013-04-09 09:35:00,
2013-04-09 04:40:00,44.4,42.8,29.95,ESE,114,3.0,3.0,94,0.00,,,0.27,Wunderground v.1.15,2013-04-09 09:40:00,
2013-04-09 04:45:00,44.5,42.9,29.94,SE,145,2.0,6.0,94,0.07,,,0.28,Wunderground v.1.15,2013-04-09 09:45:00,
2013-04-09 04:50:00,44.4,42.8,29.93,ESE,113,3.0,5.0,94,0.07,,,0.28,Wunderground v.1.15,2013-04-09 09:50:00,
2013-04-09 05:00:00,44.2,42.9,29.93,ESE,109,4.0,4.0,95,0.00,,,0.28,Wunderground v.1.15,2013-04-09 10:00:00,
2013-04-09 05:05:00,44.4,43.1,29.94,East,82,2.0,4.0,95,0.00,,,0.29,Wunderground v.1.15,2013-04-09 10:05:00,
2013-04-09 05:15:00,44.5,43.2,29.95,East,86,2.0,4.0,95,0.06,,,0.30,Wunderground v.1.15,2013-04-09 10:15:00,
2013-04-09 05:20:00,44.6,43.3,29.96,SSE,161,1.0,2.0,95,0.06,,,0.30,Wunderground v.1.15,2013-04-09 10:20:00,
2013-04-09 05:25:00,44.6,43.3,29.95,ESE,111,2.0,4.0,95,0.06,,,0.31,Wunderground v.1.15,2013-04-09 10:25:00,
2013-04-09 05:30:00,44.5,43.2,29.95,NE,49,3.0,3.0,95,0.18,,,0.33,Wunderground v.1.15,2013-04-09 10:30:00,
2013-04-09 05:35:00,44.5,43.2,29.96,SE,137,2.0,3.0,95,0.53,,,0.36,Wunderground v.1.15,2013-04-09 10:35:00,
2013-04-09 05:40:00,44.4,43.1,29.98,ESE,106,1.0,1.0,95,0.10,,,0.37,Wunderground v.1.15,2013-04-09 10:40:00,
2013-04-09 05:50:00,44.2,42.9,29.97,SE,130,3.0,3.0,95,0.06,,,0.37,Wunderground v.1.15,2013-04-09 10:50:00,
2013-04-09 06:00:00,44.1,42.8,29.96,ENE,65,1.0,5.0,95,0.00,,,0.37,Wunderground v.1.15,2013-04-09 11:00:00,
2013-04-09 06:05:00,44.0,42.7,29.96,SSE,154,3.0,5.0,95,0.00,,,0.37,Wunderground v.1.15,2013-04-09 11:05:00,
2013-04-09 06:15:00,43.8,42.5,29.95,East,95,3.0,9.0,95,0.00,,,0.38,Wunderground v.1.15,2013-04-09 11:15:00,
2013-04-09 06:20:00,43.8,42.5,29.96,East,88,2.0,5.0,95,0.00,,,0.38,Wunderground v.1.15,2013-04-09 11:20:00,
2013-04-09 06:25:00,43.7,42.4,29.96,ESE,113,2.0,5.0,95,0.00,,,0.38,Wunderground v.1.15,2013-04-09 11:25:00,
2013-04-09 06:35:00,43.7,42.4,29.94,ESE,116,2.0,4.0,95,0.00,,,0.38,Wunderground v.1.15,2013-04-09 11:35:00,
2013-04-09 06:45:00,43.5,42.2,29.94,East,81,2.0,4.0,95,0.00,,,0.38,Wunderground v.1.15,2013-04-09 11:45:00,
2013-04-09 06:50:00,43.4,42.1,29.94,NE,53,2.0,10.0,95,0.00,,,0.38,Wunderground v.1.15,2013-04-09 11:50:00,
2013-04-09 06:55:00,43.3,42.0,29.94,East,86,3.0,10.0,95,0.00,,,0.38,Wunderground v.1.15,2013-04-09 11:55:00,
2013-04-09 07:00:00,43.4,42.1,29.94,East,93,2.0,2.0,95,0.00,,,0.38,Wunderground v.1.15,2013-04-09 12:00:00,
2013-04-09 07:05:00,43.3,42.0,29.97,NNE,33,1.0,2.0,95,0.00,,,0.39,Wunderground v.1.15,2013-04-09 12:05:00,
2013-04-09 07:15:00,43.3,42.0,29.95,East,91,1.0,4.0,95,4.76,,,0.58,Wunderground v.1.15,2013-04-09 12:15:00,
2013-04-09 07:20:00,43.2,41.9,29.95,SE,128,2.0,2.0,95,0.27,,,0.63,Wunderground v.1.15,2013-04-09 12:20:00,
2013-04-09 07:25:00,43.1,41.8,29.96,ESE,104,2.0,2.0,95,0.08,,,0.63,Wunderground v.1.15,2013-04-09 12:25:00,
2013-04-09 07:30:00,43.0,41.7,29.97,East,100,1.0,1.0,95,0.05,,,0.63,Wunderground v.1.15,2013-04-09 12:30:00,
2013-04-09 07:35:00,43.0,41.7,29.97,East,90,2.0,2.0,95,0.00,,,0.63,Wunderground v.1.15,2013-04-09 12:35:00,
2013-04-09 07:45:00,43.0,41.7,29.97,East,80,1.0,1.0,95,0.00,,,0.64,Wunderground v.1.15,2013-04-09 12:45:00,
2013-04-09 07:50:00,43.0,41.7,29.97,East,92,1.0,1.0,95,0.00,,,0.64,Wunderground v.1.15,2013-04-09 12:50:00,
2013-04-09 07:55:00,43.0,41.7,29.97,East,93,2.0,2.0,95,0.00,,,0.64,Wunderground v.1.15,2013-04-09 12:55:00,
2013-04-09 08:00:00,43.0,41.9,29.97,ESE,107,1.0,1.0,96,0.00,,,0.64,Wunderground v.1.15,2013-04-09 13:00:00,
2013-04-09 08:05:00,43.0,41.9,29.97,ENE,73,1.0,1.0,96,0.20,,,0.66,Wunderground v.1.15,2013-04-09 13:05:00,
2013-04-09 08:15:00,43.1,42.0,29.97,ENE,66,1.0,1.0,96,0.24,,,0.70,Wunderground v.1.15,2013-04-09 13:15:00,
2013-04-09 08:20:00,43.1,42.0,29.96,East,94,1.0,2.0,96,0.11,,,0.70,Wunderground v.1.15,2013-04-09 13:20:00,
2013-04-09 08:25:00,43.1,42.0,29.95,ESE,117,1.0,4.0,96,0.09,,,0.71,Wunderground v.1.15,2013-04-09 13:25:00,
2013-04-09 08:35:00,43.1,42.0,29.94,ESE,109,1.0,1.0,96,0.06,,,0.72,Wunderground v.1.15,2013-04-09 13:35:00,
2013-04-09 08:40:00,43.2,42.1,29.95,East,94,1.0,1.0,96,0.04,,,0.72,Wunderground v.1.15,2013-04-09 13:40:00,
2013-04-09 08:45:00,43.2,42.1,29.94,East,91,2.0,2.0,96,0.00,,,0.72,Wunderground v.1.15,2013-04-09 13:45:00,
2013-04-09 08:50:00,43.3,42.2,29.94,ESE,108,1.0,1.0,96,0.00,,,0.72,Wunderground v.1.15,2013-04-09 13:50:00,
2013-04-09 09:00:00,43.3,42.2,29.93,East,86,1.0,1.0,96,0.00,,,0.72,Wunderground v.1.15,2013-04-09 14:00:00,
2013-04-09 09:05:00,43.3,42.2,29.93,East,94,2.0,2.0,96,0.00,,,0.72,Wunderground v.1.15,2013-04-09 14:05:00,
2013-04-09 09:15:00,43.4,42.3,29.92,ESE,117,2.0,4.0,96,0.00,,,0.72,Wunderground v.1.15,2013-04-09 14:15:00,
2013-04-09 09:25:00,43.9,42.8,29.92,SE,128,2.0,4.0,96,0.00,,,0.72,Wunderground v.1.15,2013-04-09 14:25:00,
2013-04-09 09:30:00,44.3,43.2,29.92,NE,36,1.0,1.0,96,0.00,,,0.72,Wunderground v.1.15,2013-04-09 14:30:00,
2013-04-09 09:40:00,44.3,43.2,29.93,ENE,76,1.0,1.0,96,0.00,,,0.72,Wunderground v.1.15,2013-04-09 14:40:00,
2013-04-09 09:45:00,44.0,42.9,29.93,SSW,206,1.0,3.0,96,0.00,,,0.72,Wunderground v.1.15,2013-04-09 14:45:00,
2013-04-09 09:50:00,43.7,42.6,29.93,ESE,103,2.0,2.0,96,0.00,,,0.72,Wunderground v.1.15,2013-04-09 14:50:00,
2013-04-09 09:55:00,43.6,42.5,29.93,NE,53,2.0,2.0,96,0.00,,,0.72,Wunderground v.1.15,2013-04-09 14:55:00,
2013-04-09 10:00:00,43.5,42.4,29.93,ENE,78,2.0,2.0,96,0.00,,,0.72,Wunderground v.1.15,2013-04-09 15:00:00,
2013-04-09 10:05:00,43.6,42.5,29.93,SE,125,2.0,2.0,96,0.00,,,0.72,Wunderground v.1.15,2013-04-09 15:05:00,
2013-04-09 10:15:00,43.6,42.5,29.92,East,98,2.0,2.0,96,0.00,,,0.72,Wunderground v.1.15,2013-04-09 15:15:00,
2013-04-09 10:20:00,43.7,42.6,29.92,East,90,2.0,2.0,96,0.00,,,0.72,Wunderground v.1.15,2013-04-09 15:20:00,
2013-04-09 10:25:00,43.8,42.7,29.92,North,9,1.0,2.0,96,0.00,,,0.72,Wunderground v.1.15,2013-04-09 15:25:00,
2013-04-09 10:35:00,43.8,42.7,29.91,ESE,114,2.0,2.0,96,0.00,,,0.72,Wunderground v.1.15,2013-04-09 15:35:00,
2013-04-09 10:40:00,43.8,42.7,29.91,ESE,105,2.0,2.0,96,0.00,,,0.72,Wunderground v.1.15,2013-04-09 15:40:00,
2013-04-09 10:45:00,44.0,43.2,29.91,SSE,155,2.0,2.0,97,0.00,,,0.72,Wunderground v.1.15,2013-04-09 15:45:00,
2013-04-09 10:55:00,45.0,44.2,29.90,East,101,1.0,2.0,97,0.00,,,0.72,Wunderground v.1.15,2013-04-09 15:55:00,
2013-04-09 11:00:00,45.6,44.8,29.90,SE,139,2.0,6.0,97,0.00,,,0.72,Wunderground v.1.15,2013-04-09 16:00:00,
2013-04-09 11:05:00,45.7,44.9,29.90,East,98,2.0,6.0,97,0.00,,,0.72,Wunderground v.1.15,2013-04-09 16:05:00,
2013-04-09 11:15:00,46.0,45.2,29.91,SE,134,2.0,7.0,97,0.00,,,0.72,Wunderground v.1.15,2013-04-09 16:15:00,
2013-04-09 11:25:00,46.4,45.6,29.90,ESE,113,2.0,12.0,97,0.00,,,0.72,Wunderground v.1.15,2013-04-09 16:25:00,
2013-04-09 11:30:00,46.6,45.8,29.89,ESE,123,2.0,2.0,97,0.00,,,0.72,Wunderground v.1.15,2013-04-09 16:30:00,
2013-04-09 11:35:00,46.8,46.0,29.88,SSE,150,2.0,4.0,97,0.00,,,0.72,Wunderground v.1.15,2013-04-09 16:35:00,
2013-04-09 11:40:00,47.0,46.2,29.88,SSE,154,2.0,2.0,97,0.00,,,0.72,Wunderground v.1.15,2013-04-09 16:40:00,
2013-04-09 11:45:00,47.4,46.6,29.89,East,95,2.0,2.0,97,0.00,,,0.72,Wunderground v.1.15,2013-04-09 16:45:00,
2013-04-09 11:50:00,47.4,46.6,29.88,ESE,121,1.0,1.0,97,0.00,,,0.72,Wunderground v.1.15,2013-04-09 16:50:00,
2013-04-09 12:00:00,47.5,46.4,29.88,SSE,156,1.0,2.0,96,0.00,,,0.72,Wunderground v.1.15,2013-04-09 17:00:00,
2013-04-09 12:05:00,47.9,47.1,29.88,SE,131,3.0,4.0,97,0.00,,,0.72,Wunderground v.1.15,2013-04-09 17:05:00,
2013-04-09 12:15:00,48.6,47.8,29.89,East,82,1.0,3.0,97,0.00,,,0.72,Wunderground v.1.15,2013-04-09 17:15:00,
2013-04-09 12:20:00,48.6,47.5,29.89,East,98,1.0,1.0,96,0.00,,,0.72,Wunderground v.1.15,2013-04-09 17:20:00,
2013-04-09 12:25:00,48.6,47.5,29.90,ENE,72,1.0,1.0,96,0.00,,,0.72,Wunderground v.1.15,2013-04-09 17:25:00,
2013-04-09 12:35:00,48.3,47.2,29.93,NNW,345,5.0,9.0,96,0.00,,,0.72,Wunderground v.1.15,2013-04-09 17:35:00,
2013-04-09 12:40:00,48.0,46.9,29.90,East,83,4.0,4.0,96,0.00,,,0.72,Wunderground v.1.15,2013-04-09 17:40:00,
2013-04-09 12:45:00,47.8,46.7,29.90,North,360,1.0,4.0,96,0.00,,,0.72,Wunderground v.1.15,2013-04-09 17:45:00,
2013-04-09 12:55:00,47.9,46.8,29.90,NNW,342,1.0,3.0,96,0.00,,,0.72,Wunderground v.1.15,2013-04-09 17:55:00,
2013-04-09 13:00:00,48.2,47.1,29.89,East,79,1.0,1.0,96,0.00,,,0.72,Wunderground v.1.15,2013-04-09 18:00:00,
2013-04-09 13:05:00,48.4,47.3,29.89,NNW,342,1.0,1.0,96,0.00,,,0.72,Wunderground v.1.15,2013-04-09 18:05:00,
2013-04-09 13:15:00,49.0,47.9,29.89,ESE,116,2.0,2.0,96,0.00,,,0.72,Wunderground v.1.15,2013-04-09 18:15:00,
2013-04-09 13:20:00,49.6,48.5,29.89,ESE,115,2.0,5.0,96,0.00,,,0.72,Wunderground v.1.15,2013-04-09 18:20:00,
2013-04-09 13:30:00,50.5,49.1,29.89,NW,322,3.0,3.0,95,0.00,,,0.72,Wunderground v.1.15,2013-04-09 18:30:00,
2013-04-09 13:35:00,50.7,49.3,29.88,ESE,113,2.0,4.0,95,0.00,,,0.72,Wunderground v.1.15,2013-04-09 18:35:00,
2013-04-09 13:45:00,51.8,50.1,29.88,ESE,123,2.0,2.0,94,0.00,,,0.72,Wunderground v.1.15,2013-04-09 18:45:00,
2013-04-09 13:50:00,52.1,50.4,29.88,ESE,123,2.0,4.0,94,0.00,,,0.72,Wunderground v.1.15,2013-04-09 18:50:00,
2013-04-09 13:55:00,52.4,50.7,29.88,ESE,119,1.0,4.0,94,0.00,,,0.72,Wunderground v.1.15,2013-04-09 18:55:00,
2013-04-09 14:05:00,52.1,49.8,29.90,NNE,22,2.0,7.0,92,0.00,,,0.72,Wunderground v.1.15,2013-04-09 19:05:00,
2013-04-09 14:15:00,51.5,49.3,29.90,NNW,344,3.0,3.0,92,0.00,,,0.72,Wunderground v.1.15,2013-04-09 19:15:00,
2013-04-09 14:25:00,51.2,48.7,29.90,North,355,1.0,2.0,91,0.00,,,0.72,Wunderground v.1.15,2013-04-09 19:25:00,
2013-04-09 14:30:00,51.0,48.5,29.90,NNW,338,1.0,1.0,91,0.00,,,0.72,Wunderground v.1.15,2013-04-09 19:30:00,
2013-04-09 14:35:00,50.9,48.4,29.90,NW,314,1.0,4.0,91,0.00,,,0.72,Wunderground v.1.15,2013-04-09 19:35:00,
2013-04-09 14:45:00,50.5,48.0,29.91,NW,325,3.0,3.0,91,0.00,,,0.72,Wunderground v.1.15,2013-04-09 19:45:00,
2013-04-09 14:55:00,50.7,48.2,29.91,NNE,17,2.0,5.0,91,0.00,,,0.72,Wunderground v.1.15,2013-04-09 19:55:00,
2013-04-09 15:00:00,50.6,48.1,29.90,NNW,335,3.0,3.0,91,0.00,,,0.72,Wunderground v.1.15,2013-04-09 20:00:00,
2013-04-09 15:05:00,50.4,47.9,29.91,NNW,332,2.0,3.0,91,0.00,,,0.72,Wunderground v.1.15,2013-04-09 20:05:00,
2013-04-09 15:15:00,50.0,47.5,29.90,NNW,333,2.0,6.0,91,0.00,,,0.72,Wunderground v.1.15,2013-04-09 20:15:00,
2013-04-09 15:25:00,49.4,47.2,29.91,NNW,338,3.0,3.0,92,0.00,,,0.72,Wunderground v.1.15,2013-04-09 20:25:00,
2013-04-09 15:35:00,49.2,47.0,29.90,NE,38,1.0,2.0,92,0.00,,,0.72,Wunderground v.1.15,2013-04-09 20:35:00,
2013-04-09 15:40:00,49.2,47.3,29.90,ESE,106,1.0,1.0,93,0.00,,,0.72,Wunderground v.1.15,2013-04-09 20:40:00,
2013-04-09 15:45:00,49.2,47.3,29.90,WSW,250,1.0,1.0,93,0.00,,,0.72,Wunderground v.1.15,2013-04-09 20:45:00,
2013-04-09 15:50:00,49.0,46.8,29.91,NNW,336,2.0,5.0,92,0.00,,,0.72,Wunderground v.1.15,2013-04-09 20:50:00,
2013-04-09 15:55:00,48.6,46.7,29.91,NNW,334,2.0,5.0,93,0.00,,,0.72,Wunderground v.1.15,2013-04-09 20:55:00,
2013-04-09 16:05:00,47.6,45.4,29.92,NNE,20,4.0,6.0,92,0.00,,,0.72,Wunderground v.1.15,2013-04-09 21:05:00,
2013-04-09 16:10:00,47.3,45.1,29.92,NNW,333,4.0,4.0,92,0.00,,,0.72,Wunderground v.1.15,2013-04-09 21:10:00,
2013-04-09 16:20:00,46.7,44.5,29.92,NNW,327,4.0,4.0,92,0.00,,,0.72,Wunderground v.1.15,2013-04-09 21:20:00,
2013-04-09 16:25:00,46.4,44.2,29.92,NNE,24,3.0,6.0,92,0.00,,,0.72,Wunderground v.1.15,2013-04-09 21:25:00,
2013-04-09 16:30:00,46.2,44.0,29.92,ENE,57,2.0,2.0,92,0.00,,,0.72,Wunderground v.1.15,2013-04-09 21:30:00,
2013-04-09 16:35:00,46.1,43.9,29.92,NNW,327,1.0,2.0,92,0.00,,,0.72,Wunderground v.1.15,2013-04-09 21:35:00,
2013-04-09 16:45:00,46.1,43.9,29.92,SE,126,2.0,3.0,92,0.00,,,0.72,Wunderground v.1.15,2013-04-09 21:45:00,
2013-04-09 16:50:00,46.0,43.8,29.92,North,9,3.0,3.0,92,0.00,,,0.72,Wunderground v.1.15,2013-04-09 21:50:00,
2013-04-09 16:55:00,46.0,43.8,29.93,NNE,33,3.0,7.0,92,0.00,,,0.72,Wunderground v.1.15,2013-04-09 21:55:00,
2013-04-09 17:00:00,45.6,43.1,29.94,NW,321,5.0,7.0,91,0.00,,,0.72,Wunderground v.1.15,2013-04-09 22:00:00,
2013-04-09 17:05:00,45.5,43.3,29.94,NNW,348,5.0,7.0,92,0.00,,,0.72,Wunderground v.1.15,2013-04-09 22:05:00,
2013-04-09 17:15:00,45.4,42.9,29.94,NNW,336,4.0,9.0,91,0.00,,,0.72,Wunderground v.1.15,2013-04-09 22:15:00,
2013-04-09 17:20:00,45.4,42.9,29.95,NW,322,4.0,7.0,91,0.00,,,0.72,Wunderground v.1.15,2013-04-09 22:20:00,
2013-04-09 17:25:00,45.2,42.7,29.95,ENE,64,4.0,7.0,91,0.00,,,0.72,Wunderground v.1.15,2013-04-09 22:25:00,
2013-04-09 17:35:00,45.1,42.6,29.95,North,10,2.0,4.0,91,0.00,,,0.72,Wunderground v.1.15,2013-04-09 22:35:00,
2013-04-09 17:40:00,45.1,42.6,29.95,NNW,332,2.0,2.0,91,0.00,,,0.72,Wunderground v.1.15,2013-04-09 22:40:00,
2013-04-09 17:45:00,45.1,42.6,29.95,NW,323,2.0,4.0,91,0.00,,,0.72,Wunderground v.1.15,2013-04-09 22:45:00,
2013-04-09 17:55:00,44.9,42.4,29.96,NW,319,4.0,4.0,91,0.00,,,0.72,Wunderground v.1.15,2013-04-09 22:55:00,
2013-04-09 18:00:00,44.7,42.2,29.96,NNE,13,4.0,5.0,91,0.00,,,0.72,Wunderground v.1.15,2013-04-09 23:00:00,
2013-04-09 18:05:00,44.5,42.0,29.96,East,86,3.0,5.0,91,0.00,,,0.72,Wunderground v.1.15,2013-04-09 23:05:00,
2013-04-09 18:15:00,44.1,41.6,29.96,NE,48,3.0,5.0,91,0.00,,,0.72,Wunderground v.1.15,2013-04-09 23:15:00,
2013-04-09 18:20:00,43.9,41.4,29.96,NNE,18,2.0,5.0,91,0.00,,,0.72,Wunderground v.1.15,2013-04-09 23:20:00,
2013-04-09 18:25:00,43.7,41.2,29.97,NE,40,2.0,5.0,91,0.00,,,0.72,Wunderground v.1.15,2013-04-09 23:25:00,
2013-04-09 18:30:00,43.5,41.0,29.97,NE,51,2.0,2.0,91,0.00,,,0.72,Wunderground v.1.15,2013-04-09 23:30:00,
2013-04-09 18:35:00,43.5,41.0,29.97,NW,325,1.0,2.0,91,0.00,,,0.72,Wunderground v.1.15,2013-04-09 23:35:00,
2013-04-09 18:40:00,43.4,41.2,29.97,NNE,16,2.0,3.0,92,0.00,,,0.72,Wunderground v.1.15,2013-04-09 23:40:00,
2013-04-09 18:50:00,43.2,41.0,29.97,NNW,336,2.0,3.0,92,0.00,,,0.72,Wunderground v.1.15,2013-04-09 23:50:00,
2013-04-09 19:00:00,42.9,40.7,29.98,NNW,329,2.0,2.0,92,0.00,,,0.72,Wunderground v.1.15,2013-04-10 00:00:00,
2013-04-09 19:05:00,42.8,40.6,29.98,NNE,29,2.0,6.0,92,0.00,,,0.72,Wunderground v.1.15,2013-04-10 00:05:00,
2013-04-09 19:15:00,42.7,40.5,29.99,WNW,291,2.0,6.0,92,0.00,,,0.72,Wunderground v.1.15,2013-04-10 00:15:00,
2013-04-09 19:20:00,42.6,40.4,29.99,North,9,2.0,3.0,92,0.00,,,0.72,Wunderground v.1.15,2013-04-10 00:20:00,
2013-04-09 19:25:00,42.6,40.4,29.99,East,86,2.0,3.0,92,0.00,,,0.72,Wunderground v.1.15,2013-04-10 00:25:00,
2013-04-09 19:30:00,42.6,40.4,29.99,ENE,77,2.0,2.0,92,0.00,,,0.72,Wunderground v.1.15,2013-04-10 00:30:00,
2013-04-09 19:35:00,42.5,40.3,29.99,NNW,345,2.0,3.0,92,0.00,,,0.72,Wunderground v.1.15,2013-04-10 00:35:00,
2013-04-09 19:40:00,42.4,40.2,29.98,ESE,103,2.0,5.0,92,0.00,,,0.72,Wunderground v.1.15,2013-04-10 00:40:00,
2013-04-09 19:45:00,42.3,40.1,29.98,ESE,106,2.0,5.0,92,0.00,,,0.72,Wunderground v.1.15,2013-04-10 00:45:00,
2013-04-09 19:55:00,42.2,40.0,29.99,NE,45,2.0,8.0,92,0.00,,,0.72,Wunderground v.1.15,2013-04-10 00:55:00,
2013-04-09 20:00:00,42.2,40.0,29.99,NE,50,3.0,3.0,92,0.00,,,0.72,Wunderground v.1.15,2013-04-10 01:00:00,
2013-04-09 20:05:00,42.1,39.9,29.99,ENE,60,2.0,3.0,92,0.00,,,0.72,Wunderground v.1.15,2013-04-10 01:05:00,
2013-04-09 20:15:00,42.0,39.8,29.98,NE,36,3.0,12.0,92,0.00,,,0.72,Wunderground v.1.15,2013-04-10 01:15:00,
2013-04-09 20:20:00,42.0,39.8,29.98,NE,53,3.0,3.0,92,0.00,,,0.72,Wunderground v.1.15,2013-04-10 01:20:00,
2013-04-09 20:25:00,42.0,39.8,29.98,NE,44,3.0,3.0,92,0.00,,,0.72,Wunderground v.1.15,2013-04-10 01:25:00,
2013-04-09 20:30:00,41.9,39.7,29.98,SE,128,3.0,5.0,92,0.00,,,0.72,Wunderground v.1.15,2013-04-10 01:30:00,
2013-04-09 20:35:00,41.9,39.7,29.99,NE,42,3.0,5.0,92,0.00,,,0.72,Wunderground v.1.15,2013-04-10 01:35:00,
2013-04-09 20:40:00,41.8,39.6,29.99,NE,34,3.0,3.0,92,0.00,,,0.72,Wunderground v.1.15,2013-04-10 01:40:00,
2013-04-09 20:45:00,41.8,39.6,29.99,East,89,3.0,3.0,92,0.00,,,0.72,Wunderground v.1.15,2013-04-10 01:45:00,
2013-04-09 20:55:00,41.8,39.6,29.99,ESE,107,4.0,9.0,92,0.00,,,0.72,Wunderground v.1.15,2013-04-10 01:55:00,
2013-04-09 21:00:00,41.8,39.6,30.00,ENE,66,4.0,4.0,92,0.00,,,0.72,Wunderground v.1.15,2013-04-10 02:00:00,
2013-04-09 21:05:00,41.8,39.6,30.00,ENE,76,4.0,5.0,92,0.00,,,0.72,Wunderground v.1.15,2013-04-10 02:05:00,
2013-04-09 21:15:00,41.6,39.2,30.00,ENE,67,5.0,7.0,91,0.00,,,0.72,Wunderground v.1.15,2013-04-10 02:15:00,
2013-04-09 21:20:00,41.5,39.1,30.01,NNE,32,6.0,6.0,91,0.00,,,0.72,Wunderground v.1.15,2013-04-10 02:20:00,
2013-04-09 21:25:00,41.5,39.1,30.00,East,99,5.0,6.0,91,0.00,,,0.72,Wunderground v.1.15,2013-04-10 02:25:00,
2013-04-09 21:35:00,41.3,38.9,30.01,NW,319,4.0,4.0,91,0.00,,,0.72,Wunderground v.1.15,2013-04-10 02:35:00,
2013-04-09 21:40:00,41.1,38.7,30.02,SE,134,3.0,15.0,91,0.00,,,0.72,Wunderground v.1.15,2013-04-10 02:40:00,
2013-04-09 21:45:00,40.9,38.5,30.02,ENE,57,3.0,15.0,91,0.00,,,0.72,Wunderground v.1.15,2013-04-10 02:45:00,
2013-04-09 21:50:00,40.9,38.5,30.02,ENE,74,3.0,6.0,91,0.00,,,0.72,Wunderground v.1.15,2013-04-10 02:50:00,
2013-04-09 21:55:00,40.8,38.4,30.02,NE,51,5.0,6.0,91,0.00,,,0.72,Wunderground v.1.15,2013-04-10 02:55:00,
2013-04-09 22:05:00,40.9,38.2,30.02,ENE,74,3.0,5.0,90,0.00,,,0.72,Wunderground v.1.15,2013-04-10 03:05:00,
2013-04-09 22:15:00,40.8,38.1,30.02,East,91,4.0,5.0,90,0.00,,,0.72,Wunderground v.1.15,2013-04-10 03:15:00,
2013-04-09 22:20:00,40.7,38.0,30.02,ESE,109,4.0,6.0,90,0.00,,,0.72,Wunderground v.1.15,2013-04-10 03:20:00,
2013-04-09 22:30:00,40.6,38.2,30.02,SE,130,5.0,5.0,91,0.00,,,0.72,Wunderground v.1.15,2013-04-10 03:30:00,
2013-04-09 22:35:00,40.5,37.8,30.02,NNE,13,4.0,5.0,90,0.00,,,0.72,Wunderground v.1.15,2013-04-10 03:35:00,
2013-04-09 22:45:00,40.5,37.8,30.02,NNE,25,4.0,6.0,90,0.00,,,0.72,Wunderground v.1.15,2013-04-10 03:45:00,
2013-04-09 22:50:00,40.4,38.0,30.02,East,82,4.0,4.0,91,0.00,,,0.72,Wunderground v.1.15,2013-04-10 03:50:00,
2013-04-09 22:55:00,40.3,37.9,30.02,ESE,109,4.0,4.0,91,0.00,,,0.72,Wunderground v.1.15,2013-04-10 03:55:00,
2013-04-09 23:00:00,40.2,37.8,30.02,ENE,59,3.0,5.0,91,0.00,,,0.72,Wunderground v.1.15,2013-04-10 04:00:00,
2013-04-09 23:05:00,40.2,37.8,30.02,East,100,3.0,5.0,91,0.00,,,0.72,Wunderground v.1.15,2013-04-10 04:05:00,
2013-04-09 23:15:00,40.0,37.6,30.01,East,88,4.0,8.0,91,0.00,,,0.72,Wunderground v.1.15,2013-04-10 04:15:00,
2013-04-09 23:20:00,39.9,37.5,30.02,SE,128,4.0,4.0,91,0.00,,,0.72,Wunderground v.1.15,2013-04-10 04:20:00,
2013-04-09 23:25:00,39.7,37.3,30.01,East,80,4.0,7.0,91,0.23,,,0.74,Wunderground v.1.15,2013-04-10 04:25:00,
2013-04-09 23:30:00,39.6,37.5,30.01,SE,126,4.0,7.0,92,0.10,,,0.74,Wunderground v.1.15,2013-04-10 04:30:00,
2013-04-09 23:40:00,39.4,37.3,30.01,ESE,106,3.0,11.0,92,0.04,,,0.74,Wunderground v.1.15,2013-04-10 04:40:00,
2013-04-09 23:45:00,39.3,37.2,30.00,East,87,4.0,11.0,92,0.00,,,0.74,Wunderground v.1.15,2013-04-10 04:45:00,
2013-04-09 23:55:00,39.2,37.3,30.00,SW,218,3.0,8.0,93,0.00,,,0.75,Wunderground v.1.15,2013-04-10 04:55:00,